Regional Weather Roundup
Issued by NWS

Home | Current Version | Previous Version | Text Only | Print | Product List | Glossary Off
Versions: 1 2 3 4 5 6 7 8 9 10 11 12 13 14 15 16 17 18 19 20 21 22 23 24 25 26 27 28 29 30 31 32 33 34 35 36 37 38 39 40 41 42 43 44 45 46 47 48 49 50

000
ASUS44 KMEG 051010
RWRTN
TENNESSEE HOURLY STATE WEATHER ROUNDUP
NATIONAL WEATHER SERVICE MEMPHIS TN
500 AM CDT TUE MAY 05 2015

TNZ002-004-019-021-049-052-054-088>092-051100-
WEST TENNESSEE

CITY           SKY/WX    TMP DP  RH WIND       PRES   REMARKS
MEMPHIS INTL   MOCLDY    69  54  58 S8        30.19S
NWS MEMPHIS      N/A     65 N/A N/A MISG        N/A
JACKSON        CLEAR     54  52  93 CALM      30.21S
DYERSBURG      PTCLDY    63  45  51 SE3       30.21S
PARIS          CLEAR     55  50  82 SE5       30.23S
LEXINGTON      CLEAR     52  50  93 CALM      30.22S
$$

TNZ008-025-027-028-033-062-065-066-051100-
NORTH MIDDLE TENNESSEE

CITY           SKY/WX    TMP DP  RH WIND       PRES   REMARKS
NASHVILLE      PTCLDY    59  53  80 CALM      30.26R
CLARKSVILLE    CLEAR     54  54 100 SE6       30.24R
SMYRNA         CLEAR     53  53 100 CALM      30.27R
COOKEVILLE     CLEAR     48  48 100 CALM      30.28R
CROSSVILLE     CLEAR     52  48  86 CALM      30.32R
$$

TNZ061-075-076-078-094-096-097-051100-
SOUTH MIDDLE TENNESSEE

CITY           SKY/WX    TMP DP  RH WIND       PRES   REMARKS
FAYETTEVILLE     N/A     57  50  77 CALM      30.28R
TULLAHOMA      CLEAR     52  48  87 CALM      30.29S
WINCHESTER     CLEAR     57  52  82 CALM      30.28S
MCMINNVILLE    CLEAR     52  52 100 CALM      30.29R
COLUMBIA       CLEAR     54  54 100 CALM      30.24S
SHELBYVILLE    CLEAR     55  54  94 CALM      30.28R
$$

TNZ017-018-042-046-047-051100-
NORTHEAST TENNESSEE

CITY           SKY/WX    TMP DP  RH WIND       PRES   REMARKS
TRI CITIES     CLEAR     49  48  97 CALM      30.33R FOG
ELIZABETHTON   SUNNY     52  48  87 CALM      30.33R
$$

TNZ012-013-036-069-073-074-051100-
CENTRAL EAST TENNESSEE

CITY           SKY/WX    TMP DP  RH WIND       PRES   REMARKS
KNOXVILLE      PTCLDY    56  53  90 CALM      30.29
OAK RIDGE      CLEAR     54  51  90 CALM      30.31S
GATLINBURG     SUNNY     54  52  94 CALM      30.30R
MORRISTOWN     SUNNY     55  52  88 CALM      30.32R
$$

TNZ083-085-099-051100-
SOUTHEAST TENNESSEE

CITY           SKY/WX    TMP DP  RH WIND       PRES   REMARKS
CHATTANOOGA    PTCLDY    57  53  86 CALM      30.30R
$$

SKY/WX REPORTED AS FAIR MEANS FEW OR NO CLOUDS BELOW
12 THOUSAND FEET.



USA.gov is the U.S. government's official web portal to all federal, state and local government web resources and services.